sat.trackr.live / text

‹ back to catalog

STARLINK-3552

NORAD 51813 · 2022-017AX

PAYLOAD ACTIVE UNKNOWN

§ Identity

Operator
Country
US
Launch date
2022-02-25
Launch site
AFWTR
Launch vehicle
Mass (kg)
RCS (m²)

Purposes: comms

External: N2YO · Heavens-Above · Gunter

§ Orbital elements

Epoch: 2026-09-20T02:30:38.780064Z

Period
93.79 min
Inclination
53.1615°
Eccentricity
0.0001285
Mean motion
15.35396117 rev/d
Perigee alt
458.9 km
Apogee alt
460.6 km
Semi-major
6,837.9 km
B*
8.2247e-6
RAAN
165.2641°
Arg perigee
61.4234°
Mean anomaly
298.6898°
Rev number
25,358

§ Raw data

STARLINK-35521 51813U 22017AX  26263.10461551 -.00000094  00000+0  82247-5 0  99932 51813  53.1615 165.2641 0001285  61.4234 298.6898 15.35396117253586

JSON: /api/v1/satellites/51813 · /tle

For live sub-satellite position, see the globe view (requires WebGL).

§ Visibility from observer

Set your observer location to see the next 7 days of passes ≥ 10°. The values pass through the URL so the page stays shareable.

No JS? Fill the form by hand. The geolocation button needs JavaScript.